Weather History for KLRO - October, 2012

Change the Weather History Date:

Sunday, October 14, 2012

  Actual Average (KCHS) Record (KCHS)
Temperature  
Mean Temperature 68 °F 67 °F  
Max Temperature 80 °F 78 °F 88 °F (1990)
Min Temperature 57 °F 57 °F 39 °F (1988)
Degree Days  
Heating Degree Days 0 2  
Month to date heating degree days 16  
Since 1 July heating degree days 19  
Cooling Degree Days 4 4  
Month to date cooling degree days 78  
Year to date cooling degree days 2216  
Growing Degree Days 18 (Base 50)    
Moisture  
Dew Point 59 °F    
Average Humidity 78    
Maximum Humidity 100    
Minimum Humidity 42    
Precipitation  
Precipitation 0.15 in 0.12 in 1.22 in (1954)
Month to date precipitation 1.99  
Year to date precipitation 43.73  
Sea Level Pressure  
Sea Level Pressure 30.18 in    
Wind  
Wind Speed 3 mph (East)    
Max Wind Speed 10 mph    
Max Gust Speed -    
Visibility 10 miles    
Events Rain    
T = Trace of Precipitation, MM = Missing Value Source: NWS Daily Summary

Daily Weather History Graph

Daily Weather History Graph

Search for Another Location

Airport or City:

Trip Planner

Search our weather history database for the weather conditions in past years. The results will help you decide how hot, cold, wet, or windy it might be!

Date:

Astronomy

Oct. 14, 2012 Rise Set
Actual Time 7:22 AM EDT 6:46 PM EDT
Civil Twilight 6:58 AM EDT 7:11 PM EDT
Nautical Twilight 6:29 AM EDT 7:40 PM EDT
Astronomical Twilight 6:00 AM EDT 8:08 PM EDT
Moon 6:21 AM EDT (10/14) 6:06 PM EDT (10/14)
Length of Visible Light 12h 13m
Length of Day
11h 23m
Waning Crescent, 1% of the Moon is Illuminated
Oct 14
Waning Crescent
Oct 15
New
Oct 21
First Quarter
Oct 29
Full
Nov 6
Last Quarter

Hourly Weather History & Observations

Time (EDT) Temp. Heat Index Dew Point Humidity Pressure Visibility Wind Dir Wind Speed Gust Speed Precip Events Conditions
12:15 AM 60.8 °F - 55.4 °F 82% 30.29 in 10.0 mi NNE 3.5 mph - N/A Rain Light Rain
12:35 AM 60.8 °F - 57.2 °F 88% 30.29 in 10.0 mi Calm Calm - 0.01 in Rain Light Rain
1:15 AM 60.8 °F - 55.4 °F 82% 30.27 in 10.0 mi NNE 3.5 mph - N/A Rain Light Rain
1:35 AM 60.8 °F - 55.4 °F 82% 30.27 in 10.0 mi NNE 3.5 mph - 0.01 in Rain Light Rain
1:55 AM 59.0 °F - 55.4 °F 88% 30.26 in 10.0 mi NNE 3.5 mph - 0.01 in Rain Light Rain
2:15 AM 59.0 °F - 55.4 °F 88% 30.26 in 10.0 mi NNE 3.5 mph - N/A Rain Light Rain
2:35 AM 59.0 °F - 55.4 °F 88% 30.25 in 10.0 mi Calm Calm - 0.01 in Rain Light Rain
2:55 AM 59.0 °F - 55.4 °F 88% 30.24 in 10.0 mi Calm Calm - 0.01 in Rain Light Rain
3:15 AM 57.2 °F - 55.4 °F 94% 30.24 in 10.0 mi NNE 3.5 mph - N/A Rain Light Rain
3:35 AM 57.2 °F - 55.4 °F 94% 30.23 in 10.0 mi Calm Calm - 0.01 in Rain Light Rain
3:55 AM 57.2 °F - 55.4 °F 94% 30.22 in 10.0 mi Calm Calm - 0.01 in Rain Light Rain
4:15 AM 57.2 °F - 55.4 °F 94% 30.22 in 9.0 mi Calm Calm - N/A Rain Light Rain
4:35 AM 57.2 °F - 55.4 °F 94% 30.22 in 10.0 mi Calm Calm - 0.01 in Rain Light Rain
4:55 AM 57.2 °F - 55.4 °F 94% 30.22 in 9.0 mi Calm Calm - 0.01 in Rain Light Rain
5:15 AM 57.2 °F - 55.4 °F 94% 30.21 in 8.0 mi North 3.5 mph - N/A Rain Light Rain
5:35 AM 57.2 °F - 55.4 °F 94% 30.21 in 9.0 mi Calm Calm - 0.01 in Rain Light Rain
5:55 AM 57.2 °F - 55.4 °F 94% 30.21 in 8.0 mi Calm Calm - 0.01 in Rain Light Rain
6:15 AM 57.2 °F - 55.4 °F 94% 30.21 in 8.0 mi Calm Calm - N/A Rain Light Rain
6:35 AM 57.2 °F - 55.4 °F 94% 30.21 in 9.0 mi North 3.5 mph - 0.01 in Rain Light Rain
6:55 AM 57.2 °F - 55.4 °F 94% 30.22 in 9.0 mi Calm Calm - 0.01 in Rain Light Rain
7:15 AM 57.2 °F - 55.4 °F 94% 30.22 in 8.0 mi Calm Calm - N/A Rain Light Rain
7:35 AM 57.2 °F - 55.4 °F 94% 30.22 in 7.0 mi NNE 3.5 mph - 0.01 in Rain Light Rain
7:55 AM 57.2 °F - 55.4 °F 94% 30.22 in 8.0 mi Calm Calm - 0.01 in Rain Light Rain
8:15 AM 57.2 °F - 55.4 °F 94% 30.22 in 8.0 mi NNE 3.5 mph - N/A Rain Light Rain
8:35 AM 59.0 °F - 57.2 °F 94% 30.23 in 9.0 mi NNE 3.5 mph - 0.01 in Rain Light Rain
8:55 AM 62.6 °F - 57.2 °F 82% 30.24 in 9.0 mi Calm Calm - 0.01 in Rain Light Rain
9:15 AM 64.4 °F - 60.8 °F 88% 30.23 in 10.0 mi Calm Calm - N/A Rain Light Rain
9:35 AM 66.2 °F - 60.8 °F 83% 30.24 in 9.0 mi North 3.5 mph - N/A Rain Light Rain
9:55 AM 69.8 °F - 60.8 °F 73% 30.24 in 10.0 mi NNE 3.5 mph - 0.01 in Rain Light Rain
10:15 AM 71.6 °F - 62.6 °F 73% 30.23 in 10.0 mi North 3.5 mph - N/A Rain Light Rain
10:35 AM 73.4 °F - 64.4 °F 73% 30.24 in 10.0 mi Calm Calm - N/A   Clear
10:55 AM 77.0 °F - 64.4 °F 65% 30.23 in 10.0 mi ENE 3.5 mph - N/A Rain Light Rain
11:15 AM 78.8 °F - 64.4 °F 61% 30.23 in 9.0 mi East 5.8 mph - N/A   Clear
11:35 AM 78.8 °F - 62.6 °F 57% 30.23 in 9.0 mi East 5.8 mph - N/A   Clear
11:55 AM 78.8 °F - 62.6 °F 57% 30.22 in 10.0 mi East 4.6 mph - N/A Rain Light Rain
12:15 PM 78.8 °F - 60.8 °F 54% 30.21 in 10.0 mi ESE 10.4 mph - N/A   Clear
12:35 PM 80.6 °F 81.8 °F 62.6 °F 54% 30.20 in 10.0 mi ESE 8.1 mph - N/A   Clear
12:55 PM 80.6 °F 81.5 °F 60.8 °F 51% 30.20 in 10.0 mi ESE 6.9 mph - N/A   Clear
1:15 PM 80.6 °F 81.5 °F 60.8 °F 51% 30.19 in 10.0 mi East 3.5 mph - N/A   Clear
1:35 PM 80.6 °F 81.5 °F 60.8 °F 51% 30.18 in 10.0 mi East 5.8 mph - N/A   Clear
1:55 PM 80.6 °F 81.1 °F 59.0 °F 48% 30.17 in 10.0 mi NE 4.6 mph - N/A   Clear
2:15 PM 80.6 °F 81.1 °F 59.0 °F 48% 30.17 in 10.0 mi SE 8.1 mph - N/A   Clear
2:35 PM 80.6 °F 80.8 °F 57.2 °F 45% 30.16 in 10.0 mi ESE 3.5 mph - N/A   Clear
2:55 PM 80.6 °F 81.1 °F 59.0 °F 48% 30.15 in 10.0 mi SSE 4.6 mph - N/A   Clear
3:15 PM 80.6 °F 81.1 °F 59.0 °F 48% 30.15 in 10.0 mi SE 5.8 mph - N/A   Clear
3:55 PM 80.6 °F 80.8 °F 57.2 °F 45% 30.14 in 10.0 mi SSE 5.8 mph - N/A   Clear
4:15 PM 80.6 °F 80.5 °F 55.4 °F 42% 30.13 in 10.0 mi SE 3.5 mph - N/A   Clear
4:35 PM 80.6 °F 80.5 °F 55.4 °F 42% 30.12 in 10.0 mi SE 5.8 mph - N/A Rain Light Rain
4:55 PM 80.6 °F 80.8 °F 57.2 °F 45% 30.12 in 10.0 mi SE 5.8 mph - N/A   Clear
5:15 PM 78.8 °F - 60.8 °F 54% 30.12 in 10.0 mi SE 5.8 mph - N/A   Clear
5:35 PM 78.8 °F - 60.8 °F 54% 30.11 in 10.0 mi ESE 4.6 mph - N/A   Clear
5:55 PM 75.2 °F - 62.6 °F 65% 30.12 in 10.0 mi ESE 4.6 mph - N/A   Clear
6:15 PM 75.2 °F - 62.6 °F 65% 30.12 in 10.0 mi Calm Calm - N/A Rain Light Rain
6:35 PM 71.6 °F - 64.4 °F 78% 30.11 in 10.0 mi ESE 3.5 mph - N/A Rain Light Rain
6:55 PM 69.8 °F - 64.4 °F 83% 30.11 in 9.0 mi Calm Calm - 0.01 in Rain Light Rain
7:15 PM 66.2 °F - 64.4 °F 94% 30.11 in 10.0 mi East 3.5 mph - N/A Rain Light Rain
7:35 PM 66.2 °F - 62.6 °F 88% 30.11 in 10.0 mi East 3.5 mph - 0.01 in Rain Light Rain
7:55 PM 66.2 °F - 62.6 °F 88% 30.11 in 10.0 mi East 3.5 mph - 0.01 in Rain Light Rain
8:15 PM 66.2 °F - 62.6 °F 88% 30.10 in 10.0 mi East 4.6 mph - N/A Rain Light Rain
8:35 PM 66.2 °F - 64.4 °F 94% 30.10 in 9.0 mi Calm Calm - 0.01 in Rain Light Rain
8:55 PM 66.2 °F - 64.4 °F 94% 30.11 in 10.0 mi Calm Calm - 0.01 in Rain Light Rain
9:15 PM 64.4 °F - 64.4 °F 100% 30.10 in 9.0 mi Calm Calm - N/A Rain Light Rain
9:35 PM 64.4 °F - 62.6 °F 94% 30.10 in 9.0 mi Calm Calm - 0.01 in Rain Light Rain
9:55 PM 64.4 °F - 62.6 °F 94% 30.10 in 10.0 mi ESE 3.5 mph - 0.01 in Rain Light Rain
10:15 PM 64.4 °F - 62.6 °F 94% 30.09 in 10.0 mi ESE 3.5 mph - N/A Rain Light Rain
10:35 PM 64.4 °F - 62.6 °F 94% 30.09 in 10.0 mi Calm Calm - 0.01 in Rain Light Rain
10:55 PM 64.4 °F - 62.6 °F 94% 30.08 in 9.0 mi East 3.5 mph - 0.01 in Rain Light Rain
11:15 PM 64.4 °F - 62.6 °F 94% 30.08 in 8.0 mi Calm Calm - N/A Rain Light Rain
11:35 PM 64.4 °F - 62.6 °F 94% 30.07 in 10.0 mi Calm Calm - 0.01 in Rain Light Rain
11:55 PM 64.4 °F - 62.6 °F 94% 30.06 in 8.0 mi Calm Calm - 0.01 in Rain Light Rain